EN

Hourly Weather Aarschot

Today, 12 June, Saturday

Time Temperature Precipitation Wind Pressure Humidity
00:00 +16°C° 0 mm 2 mps 761 mmHg 94%
01:00 +16°C° 0 mm 3 mps 761 mmHg 94%
02:00 +14°C° 0 mm 3 mps 761 mmHg 94%
03:00 +14°C° 0 mm 3 mps 760 mmHg 95%
04:00 +16°C° 0 mm 3 mps 761 mmHg 92%
05:00 +17°C° 0 mm 3 mps 761 mmHg 90%
06:00 +17°C° 0 mm 4 mps 761 mmHg 87%
07:00 +17°C° 0 mm 3 mps 761 mmHg 86%
08:00 +18°C° 0 mm 3 mps 761 mmHg 85%
09:00 +18°C° 0 mm 3 mps 762 mmHg 84%
10:00 +19°C° 0 mm 4 mps 762 mmHg 77%
11:00 +20°C° 0 mm 5 mps 762 mmHg 70%
12:00 +21°C° 0 mm 5 mps 762 mmHg 63%
13:00 +21°C° 0 mm 5 mps 762 mmHg 59%
14:00 +21°C° 0 mm 5 mps 763 mmHg 54%
15:00 +21°C° 0 mm 5 mps 763 mmHg 50%
16:00 +20°C° 0 mm 5 mps 763 mmHg 54%
17:00 +19°C° 0 mm 5 mps 764 mmHg 59%
18:00 +18°C° 0 mm 4 mps 764 mmHg 63%
19:00 +15°C° 0 mm 4 mps 765 mmHg 67%
20:00 +14°C° 0 mm 3 mps 765 mmHg 71%
21:00 +13°C° 0 mm 2 mps 765 mmHg 75%
22:00 +12°C° 0 mm 2 mps 766 mmHg 77%
23:00 +10°C° 0 mm 2 mps 766 mmHg 78%

Tomorrow, 13 June, Sunday

Time Temperature Precipitation Wind Pressure Humidity
00:00 +10°C° 0 mm 2 mps 766 mmHg 79%
01:00 +10°C° 0 mm 1 mps 766 mmHg 81%
02:00 +10°C° 0 mm 1 mps 766 mmHg 82%
03:00 +10°C° 0 mm 1 mps 766 mmHg 84%
04:00 +11°C° 0 mm 1 mps 766 mmHg 79%
05:00 +12°C° 0 mm 1 mps 767 mmHg 75%
06:00 +14°C° 0 mm 1 mps 767 mmHg 70%
07:00 +15°C° 0 mm 1 mps 767 mmHg 65%
08:00 +18°C° 0 mm 1 mps 767 mmHg 59%
09:00 +19°C° 0 mm 2 mps 767 mmHg 54%
10:00 +20°C° 0 mm 2 mps 767 mmHg 51%
11:00 +21°C° 0 mm 2 mps 767 mmHg 48%
12:00 +23°C° 0 mm 2 mps 767 mmHg 45%
13:00 +24°C° 0 mm 2 mps 766 mmHg 44%
14:00 +24°C° 0 mm 2 mps 766 mmHg 44%
15:00 +25°C° 0 mm 2 mps 766 mmHg 43%
16:00 +24°C° 0 mm 2 mps 765 mmHg 48%
17:00 +24°C° 0 mm 2 mps 765 mmHg 53%
18:00 +23°C° 0 mm 2 mps 765 mmHg 58%
19:00 +20°C° 0 mm 2 mps 765 mmHg 62%
20:00 +18°C° 0 mm 2 mps 765 mmHg 66%
21:00 +16°C° 0 mm 2 mps 765 mmHg 70%
22:00 +15°C° 0 mm 2 mps 765 mmHg 71%
23:00 +15°C° 0 mm 2 mps 765 mmHg 73%

Day after tomorrow, 14 June, Monday

Time Temperature Precipitation Wind Pressure Humidity
00:00 +14°C° 0 mm 1 mps 764 mmHg 74%
01:00 +14°C° 0 mm 1 mps 764 mmHg 75%
02:00 +13°C° 0 mm 1 mps 764 mmHg 76%
03:00 +13°C° 0 mm 1 mps 764 mmHg 77%
04:00 +14°C° 0 mm 1 mps 764 mmHg 73%
05:00 +16°C° 0 mm 1 mps 763 mmHg 69%
06:00 +18°C° 0 mm 1 mps 763 mmHg 65%
07:00 +20°C° 0 mm 1 mps 763 mmHg 59%
08:00 +22°C° 0 mm 1 mps 763 mmHg 54%
09:00 +24°C° 0 mm 2 mps 763 mmHg 48%
10:00 +25°C° 0 mm 1 mps 762 mmHg 45%
11:00 +26°C° 0 mm 1 mps 762 mmHg 42%
12:00 +28°C° 0 mm 1 mps 762 mmHg 40%
13:00 +28°C° 0 mm 1 mps 762 mmHg 39%
14:00 +28°C° 0 mm 1 mps 761 mmHg 39%
15:00 +29°C° 0 mm 1 mps 761 mmHg 38%
16:00 +28°C° 0 mm 2 mps 761 mmHg 44%
17:00 +27°C° 0 mm 2 mps 761 mmHg 50%
18:00 +26°C° 0 mm 2 mps 760 mmHg 56%
19:00 +24°C° 0 mm 2 mps 761 mmHg 62%
20:00 +20°C° 0 mm 2 mps 761 mmHg 68%
21:00 +18°C° 0 mm 2 mps 761 mmHg 73%
22:00 +17°C° 0 mm 2 mps 761 mmHg 77%
23:00 +17°C° 0 mm 2 mps 761 mmHg 80%

15 June, Tuesday

Time Temperature Precipitation Wind Pressure Humidity
00:00 +16°C° 0 mm 1 mps 761 mmHg 84%
01:00 +16°C° 0 mm 1 mps 761 mmHg 86%
02:00 +15°C° 0 mm 1 mps 761 mmHg 89%
03:00 +15°C° 0 mm 1 mps 761 mmHg 91%
04:00 +16°C° 0 mm 1 mps 761 mmHg 88%
05:00 +18°C° 0 mm 1 mps 761 mmHg 85%
06:00 +19°C° 0 mm 1 mps 761 mmHg 82%
07:00 +21°C° 0 mm 1 mps 761 mmHg 76%
08:00 +22°C° 0 mm 1 mps 761 mmHg 70%
09:00 +24°C° 0 mm 2 mps 761 mmHg 64%
10:00 +25°C° 0 mm 2 mps 761 mmHg 61%
11:00 +26°C° 0 mm 2 mps 761 mmHg 57%
12:00 +27°C° 0 mm 2 mps 761 mmHg 53%
13:00 +27°C° 0 mm 2 mps 760 mmHg 53%
14:00 +27°C° 0 mm 2 mps 760 mmHg 53%
15:00 +27°C° 0 mm 2 mps 760 mmHg 52%
16:00 +27°C° 0 mm 3 mps 760 mmHg 58%
17:00 +26°C° 0 mm 3 mps 759 mmHg 63%
18:00 +25°C° 0 mm 3 mps 759 mmHg 68%
19:00 +22°C° 0 mm 3 mps 759 mmHg 75%
20:00 +20°C° 0 mm 3 mps 759 mmHg 82%
21:00 +19°C° 0 mm 3 mps 759 mmHg 89%
22:00 +18°C° 0 mm 3 mps 759 mmHg 90%
23:00 +17°C° 0 mm 2 mps 759 mmHg 91%

16 June, Wednesday

Time Temperature Precipitation Wind Pressure Humidity
00:00 +17°C° 0 mm 2 mps 759 mmHg 93%
01:00 +17°C° 0 mm 2 mps 758 mmHg 93%
02:00 +17°C° 0 mm 2 mps 758 mmHg 93%
03:00 +17°C° 0 mm 2 mps 758 mmHg 94%
04:00 +18°C° 0 mm 2 mps 758 mmHg 89%
05:00 +19°C° 0 mm 2 mps 757 mmHg 84%
06:00 +21°C° 0 mm 2 mps 757 mmHg 79%
07:00 +24°C° 0 mm 2 mps 757 mmHg 72%
08:00 +25°C° 0 mm 2 mps 757 mmHg 65%
09:00 +27°C° 0 mm 2 mps 757 mmHg 58%
10:00 +28°C° 0 mm 2 mps 756 mmHg 53%
11:00 +30°C° 0 mm 2 mps 756 mmHg 49%
12:00 +31°C° 0 mm 3 mps 756 mmHg 44%
13:00 +31°C° 0 mm 3 mps 755 mmHg 42%
14:00 +31°C° 0 mm 3 mps 755 mmHg 41%
15:00 +33°C° 0 mm 3 mps 755 mmHg 39%
16:00 +31°C° 0 mm 2 mps 755 mmHg 45%
17:00 +30°C° 0 mm 2 mps 754 mmHg 50%
18:00 +30°C° 0 mm 1 mps 754 mmHg 56%
19:00 +28°C° 0 mm 2 mps 754 mmHg 61%
20:00 +26°C° 0 mm 2 mps 754 mmHg 66%
21:00 +24°C° 0 mm 2 mps 754 mmHg 71%
22:00 +23°C° 0.2 mm 2 mps 754 mmHg 75%
23:00 +22°C° 0.2 mm 3 mps 754 mmHg 80%

17 June, Thursday

Time Temperature Precipitation Wind Pressure Humidity
00:00 +21°C° 0.2 mm 3 mps 754 mmHg 84%
01:00 +21°C° 0.3 mm 3 mps 754 mmHg 87%
02:00 +21°C° 0.3 mm 3 mps 753 mmHg 90%
03:00 +20°C° 0.3 mm 2 mps 753 mmHg 94%
04:00 +21°C° 0.1 mm 2 mps 753 mmHg 92%
05:00 +22°C° 0.1 mm 3 mps 754 mmHg 91%
06:00 +22°C° 0.1 mm 3 mps 754 mmHg 89%
07:00 +24°C° 0.1 mm 3 mps 754 mmHg 83%
08:00 +25°C° 0.1 mm 2 mps 754 mmHg 77%
09:00 +26°C° 0.1 mm 2 mps 754 mmHg 72%
10:00 +27°C° 0.2 mm 3 mps 754 mmHg 69%
11:00 +28°C° 0.2 mm 4 mps 754 mmHg 67%
12:00 +28°C° 0.2 mm 5 mps 754 mmHg 64%
13:00 +29°C° 0 mm 5 mps 754 mmHg 61%
14:00 +29°C° 0 mm 5 mps 754 mmHg 58%
15:00 +30°C° 0 mm 5 mps 754 mmHg 55%
16:00 +29°C° 0 mm 4 mps 754 mmHg 58%
17:00 +29°C° 0 mm 3 mps 754 mmHg 61%
18:00 +28°C° 0 mm 2 mps 753 mmHg 64%
19:00 +27°C° 0 mm 2 mps 753 mmHg 69%
20:00 +25°C° 0 mm 2 mps 754 mmHg 74%
21:00 +24°C° 0 mm 1 mps 754 mmHg 80%
22:00 +23°C° 1.9 mm 1 mps 754 mmHg 86%
23:00 +22°C° 1.9 mm 1 mps 754 mmHg 91%
Show more